Lid_Strength_Index
4 4 4 4 3 3 5 9 10 5 3 10 11 13 10 7 8 7 8 9 10 11 11 12 12 13 11 9 9 11 10 13 16 15 10 9 10 13 13 17 18 18 19 18
5 5 5 4 3 3 6 10 9 5 4 12 12 10 9 8 9 9 9 9 8 9 11 13 11 11 9 8 9 11 10 14 17 16 13 11 13 12 12 13 14 17 20 19
5 5 5 4 4 3 6 8 10 7 7 6 9 11 10 11 7 8 7 9 8 10 11 11 12 11 9 9 9 7 8 13 16 19 17 14 15 13 12 13 17 16 16 16
5 5 5 4 4 3 7 9 10 9 11 10 9 8 9 10 10 8 8 9 9 10 13 12 12 11 10 9 7 9 10 17 16 14 13 13 14 13 13 15 14 17 15 15
5 5 5 4 4 4 10 10 11 10 12 9 10 9 10 10 10 9 10 10 9 10 11 11 12 11 12 12 11 11 10 17 16 18 13 14 16 14 13 13 13 13 13 14
5 5 5 4 4 5 11 11 10 10 10 11 11 10 9 9 9 8 8 8 10 10 9 9 9 10 9 10 11 12 12 16 18 20 14 15 18 15 14 13 12 12 15 12
5 5 5 5 5 5 9 10 10 12 13 14 11 10 9 9 9 10 8 8 9 8 6 7 9 9 9 9 10 9 12 13 17 20 17 22 14 11 11 12 11 11 12 11
4 5 5 4 4 3 8 8 10 13 15 14 13 12 12 10 9 9 9 7 7 6 7 11 12 12 11 10 10 10 9 12 17 19 19 15 13 11 12 13 13 10 11 10
4 5 5 4 4 3 7 8 8 11 14 15 13 14 12 13 12 9 9 6 5 6 9 12 15 16 14 15 12 9 9 10 14 15 18 20 13 11 9 10 15 9 9 10
4 4 4 4 3 3 5 7 8 11 14 11 12 15 12 11 12 12 9 9 8 7 11 14 14 15 12 15 15 13 13 13 15 15 16 14 11 10 9 16 14 10 9 9
4 4 4 3 3 2 5 7 7 11 14 13 10 11 14 12 13 14 11 10 8 9 13 13 13 14 13 14 14 14 15 16 16 15 16 18 8 9 13 9 9 9 9 9
3 3 3 3 2 2 4 7 6 7 11 13 10 9 9 10 10 12 13 12 10 10 11 11 12 13 13 13 16 13 15 13 15 14 14 10 8 9 8 8 8 9 8 8
3 3 3 3 2 2 4 9 9 9 12 13 13 12 10 9 9 9 14 12 10 11 10 11 10 13 11 14 14 12 11 10 12 12 11 10 9 8 7 7 8 7 7 8
3 3 3 3 2 2 4 8 7 10 12 16 14 9 11 9 9 9 10 10 10 10 11 13 13 12 11 13 12 12 10 10 12 12 10 10 9 8 7 7 7 7 7 8
2 3 3 3 2 3 5 8 8 8 11 15 14 10 9 10 10 10 10 10 11 13 15 17 16 12 12 12 12 13 11 11 11 12 9 10 9 8 7 7 7 7 8 9
2 2 2 3 3 3 7 11 8 7 8 12 15 11 11 11 10 11 11 11 12 12 14 14 13 11 11 14 16 12 9 9 9 9 7 7 7 7 7 7 8 8 8 9
2 2 2 3 2 6 9 11 9 5 7 12 15 14 10 10 10 10 11 10 11 11 12 13 14 13 12 14 17 11 10 9 9 8 8 8 7 8 8 8 8 8 9 9
2 2 3 3 2 4 8 8 5 6 9 10 15 14 12 8 10 11 10 12 11 12 13 13 14 13 14 16 14 12 11 8 7 9 9 9 9 9 9 9 9 10 9 9
3 4 3 5 7 8 8 4 5 5 8 14 15 15 16 8 9 9 10 11 15 12 14 14 14 15 18 14 13 12 8 8 9 8 10 10 11 10 9 9 10 11 10 10
3 7 7 11 9 4 4 5 8 9 9 10 14 11 14 9 10 10 11 11 14 16 15 12 15 16 12 12 9 6 7 8 8 10 11 13 14 11 11 11 10 10 10 9
8 9 10 9 4 7 9 10 11 10 13 11 12 11 12 10 12 12 9 12 13 14 14 14 14 12 11 10 10 10 9 9 9 9 9 10 10 10 11 11 10 9 9 10
8 9 7 7 8 13 17 19 13 14 13 10 10 11 11 11 8 11 10 12 12 15 11 13 14 11 11 10 11 10 9 9 9 9 9 9 10 10 10 9 9 9 9 10
8 11 14 13 16 19 20 21 18 18 12 13 12 13 10 10 9 10 11 12 12 11 12 13 11 12 11 11 10 11 11 10 10 10 10 10 10 10 10 10 10 9 9 9
14 19 20 18 20 19 17 17 17 13 14 13 12 11 12 10 11 10 12 10 10 14 16 14 11 12 12 12 11 11 11 11 11 11 11 11 11 12 12 12 13 12 12 11
15 17 20 20 15 18 17 13 16 14 12 13 14 13 9 10 11 10 11 12 14 13 13 11 11 11 11 11 11 12 13 13 12 12 12 12 12 13 13 13 13 13 13 12
17 18 18 15 19 19 18 19 17 13 11 13 12 13 12 12 10 12 13 13 14 12 11 9 10 11 11 12 12 13 14 13 12 12 12 12 13 13 14 14 14 13 13 13
13 18 14 16 19 17 16 12 12 10 13 17 15 18 17 13 12 14 10 12 11 10 10 10 10 11 11 12 12 13 14 14 14 14 13 13 13 14 15 16 15 14 14 14